Wind_Speed
5 6 7 8 9 11 12 14 15 16 18 18 19 19 19 18 18 18 18 17 16 15 14 13 13 14 14 14 16 18 20 21 24 24 25 26 27 27 26 27 28 27 27
5 6 7 8 9 11 12 14 15 16 17 18 19 19 19 18 18 18 18 17 16 15 14 13 12 12 12 12 13 15 18 20 22 23 25 25 26 27 27 27 27 29 28
6 5 7 8 9 11 12 13 15 16 17 18 19 19 19 18 18 18 18 17 16 15 13 12 11 10 10 11 11 12 15 17 19 22 23 24 25 25 27 27 27 28 29
7 7 8 8 9 10 12 13 14 16 17 18 18 19 19 18 18 18 18 17 16 14 13 12 10 9 8 9 10 10 11 14 16 19 22 23 24 25 26 27 27 28 28
8 8 8 9 9 10 12 13 14 15 16 17 18 18 18 18 19 18 17 16 16 14 13 11 9 7 7 7 7 8 10 11 13 16 19 22 23 24 25 26 26 26 27
9 9 9 9 9 10 11 12 13 15 16 17 17 18 18 18 18 18 17 16 16 14 13 11 9 7 6 5 5 6 8 9 11 13 16 19 20 22 23 24 23 24 26
9 9 8 8 9 10 11 12 13 14 15 16 17 17 18 18 18 18 17 16 16 15 13 12 10 7 6 4 4 5 6 7 9 11 13 16 18 20 21 22 22 22 24
9 8 8 8 8 9 10 11 12 13 14 15 16 17 18 18 18 18 17 16 15 15 14 12 11 9 6 4 3 4 5 6 7 9 11 13 16 18 19 20 20 21 22
9 9 8 8 8 9 10 11 11 12 13 14 15 17 18 18 19 18 17 16 15 15 14 13 12 10 8 5 3 3 4 5 6 7 9 11 13 15 17 18 18 19 20
10 9 8 8 8 9 10 10 11 12 13 13 15 16 17 18 18 18 17 16 15 15 15 14 12 11 9 7 5 4 3 3 4 6 8 10 12 13 15 16 18 18 19
11 10 9 9 9 9 9 10 10 11 12 13 14 15 16 17 18 18 18 17 16 16 15 14 13 11 9 8 6 5 4 3 3 4 5 8 10 12 14 15 16 16 17
11 11 11 10 10 9 9 10 10 11 11 13 14 15 15 16 17 18 17 17 16 16 16 15 14 13 11 9 8 6 4 3 2 2 3 5 7 10 12 14 15 16 16
12 12 12 11 11 10 10 10 10 11 11 12 13 14 14 15 16 17 17 17 16 16 16 16 15 13 12 10 9 7 5 4 3 2 2 4 6 7 9 11 13 14 15
13 13 13 12 12 11 11 11 10 11 11 11 12 13 14 14 15 16 16 16 16 16 15 16 15 14 13 12 10 8 7 6 4 4 3 3 5 6 8 9 10 12 13
14 14 14 14 13 13 12 11 11 11 11 11 11 12 13 14 14 15 15 16 16 15 15 15 14 14 13 12 11 9 8 7 6 5 4 4 4 5 7 8 9 11 12
15 15 15 15 15 14 13 13 12 11 11 11 11 12 12 13 14 14 14 15 15 15 15 14 14 13 13 12 11 10 9 8 7 6 6 5 6 6 7 8 9 10 11
17 17 17 17 17 16 15 14 14 13 12 12 11 12 12 13 13 13 14 14 14 14 14 14 14 13 13 12 11 10 9 9 8 8 7 7 7 7 7 8 8 9 10
19 18 18 19 18 18 17 16 15 14 14 13 13 13 13 13 13 13 14 14 14 14 13 13 13 13 13 13 12 11 10 10 9 8 8 8 8 8 8 8 9 9 10
20 20 20 20 20 20 19 18 17 16 16 15 14 14 14 14 14 14 14 14 14 14 14 13 13 13 13 13 13 12 11 10 10 9 9 9 9 9 9 9 10 10 11
22 23 22 22 22 22 21 20 20 19 18 17 17 16 16 15 15 15 15 15 15 15 14 14 14 14 14 14 13 13 12 12 11 11 11 10 10 10 10 10 11 11 11
25 25 24 24 24 24 23 23 22 21 20 20 19 18 17 17 17 16 16 16 16 16 15 15 15 14 14 14 14 14 13 13 13 12 12 12 12 12 12 12 12 13 13
27 27 27 27 26 26 25 25 24 24 23 22 21 20 19 19 18 18 18 17 17 17 16 16 16 15 15 15 15 15 15 14 14 14 14 14 14 14 14 14 14 14 14
30 30 30 29 29 28 28 27 26 26 26 25 24 23 22 21 20 20 19 19 19 18 18 17 17 17 16 17 17 16 16 16 16 16 16 16 16 16 16 16 16 16 16
33 33 32 32 31 31 30 29 29 29 28 27 26 25 24 24 23 22 21 21 20 20 19 19 18 18 18 18 18 18 18 18 17 17 17 18 18 18 18 18 18 18 18
37 36 35 34 33 33 33 32 31 31 30 29 28 28 27 26 25 24 24 23 22 22 21 21 20 20 20 20 20 20 20 20 20 20 20 20 20 20 20 20 20 20 20
40 39 38 38 37 36 35 34 34 33 32 32 31 30 29 28 27 27 26 25 25 24 23 23 23 22 22 22 21 21 21 21 22 22 22 22 22 22 22 22 22 22 22
Wind_Direction
295 300 311 324 330 335 337 339 341 342 342 342 342 341 340 338 337 336 333 331 326 318 309 301 291 282 273 261 251 246 239 235 231 229 227 229 228 228 227 225 224 222 223
291 298 311 322 327 332 336 339 342 344 345 345 345 345 343 342 341 340 338 336 333 327 321 313 301 288 276 265 255 248 241 235 231 229 228 229 227 228 227 225 224 222 224
292 296 307 317 324 330 335 339 343 345 346 346 347 347 346 345 344 343 342 340 338 333 329 323 311 296 281 270 259 251 243 236 232 229 228 227 226 225 226 228 226 224 224
290 297 306 314 321 328 333 338 343 346 348 349 349 349 349 348 347 346 345 345 344 340 337 332 321 303 288 274 260 252 247 238 233 228 226 226 225 225 225 226 227 226 226
287 293 301 308 317 325 332 338 342 346 348 350 351 351 351 352 352 351 351 351 350 348 345 341 337 324 304 282 260 251 249 244 236 229 227 227 226 224 223 225 227 228 227
285 291 299 306 316 324 331 336 341 345 348 351 353 353 353 354 356 356 356 356 355 353 353 352 347 336 318 294 264 249 247 242 236 231 228 228 228 225 224 223 224 228 228
283 288 295 303 314 323 330 335 339 344 348 352 355 356 356 357 358 359 359 359 360 0 0 1 357 351 337 312 279 260 250 244 236 231 229 230 230 228 226 224 225 228 229
283 285 291 301 313 321 328 334 338 343 348 352 355 357 358 359 0 1 0 0 2 2 3 3 4 360 353 334 300 267 255 244 236 233 232 231 231 230 228 228 228 230 232
280 280 286 297 309 319 327 333 338 344 347 350 353 357 359 1 2 3 3 3 5 5 5 5 6 6 6 358 341 299 269 251 241 236 232 231 231 228 229 230 231 234 235
276 276 282 291 302 313 323 330 336 342 347 351 353 356 359 2 4 5 6 7 8 8 7 8 9 10 12 10 356 335 314 278 252 240 235 232 231 227 230 232 234 238 239
272 273 278 286 295 306 317 326 334 340 347 351 354 355 358 2 4 6 8 10 11 10 10 11 12 12 11 9 3 355 342 321 291 254 242 238 234 231 232 236 238 242 244
269 270 273 280 287 296 308 318 328 336 341 348 351 353 355 359 3 6 8 10 12 13 12 12 14 15 15 12 10 6 2 348 332 287 256 244 242 242 240 240 243 247 250
269 267 270 274 280 288 298 308 317 326 333 339 346 351 353 357 1 4 7 8 9 11 14 15 16 17 19 19 19 20 20 11 356 328 287 261 253 249 246 244 247 251 253
268 266 266 269 274 281 289 298 307 316 325 332 339 345 350 354 358 0 3 6 8 9 11 15 17 19 20 22 23 23 21 17 8 356 331 305 278 261 254 252 256 259 260
267 266 265 266 270 275 281 289 297 305 314 322 331 338 344 349 353 356 359 2 5 7 9 11 14 15 16 16 18 18 16 9 2 355 340 322 306 284 270 265 265 267 269
266 266 265 264 266 271 276 281 288 294 302 311 319 328 334 340 345 349 352 356 359 2 4 6 8 10 11 11 10 10 8 5 1 353 341 328 315 305 288 278 275 275 276
266 265 265 264 264 267 271 275 279 284 291 299 307 316 323 330 336 339 343 347 351 354 357 0 2 3 3 5 5 3 1 357 351 346 339 331 320 311 301 292 288 286 286
266 265 265 263 264 265 267 270 273 277 282 288 296 303 311 318 325 330 333 337 341 344 346 349 352 354 354 354 354 356 355 351 345 341 337 327 321 316 306 299 295 294 293
265 264 264 263 262 263 265 267 269 272 276 281 287 293 300 306 313 320 325 328 330 333 336 338 340 343 344 345 345 344 345 344 339 335 332 327 320 316 310 303 299 296 295
265 264 264 263 261 261 263 265 266 268 271 275 279 285 290 296 302 308 314 318 322 324 326 328 329 332 335 336 336 335 334 333 332 330 327 324 321 315 310 306 302 299 297
265 263 263 262 261 261 262 264 264 265 267 270 274 278 283 287 293 298 303 308 312 315 318 320 322 324 326 327 329 329 328 326 324 322 319 317 315 313 309 305 301 298 297
263 263 262 262 261 261 261 262 263 263 264 266 270 273 277 281 286 290 295 300 304 307 310 312 314 316 319 319 320 321 322 320 318 317 314 312 310 308 306 304 302 299 297
262 261 261 261 261 261 261 261 261 262 262 264 267 269 272 276 280 285 289 294 297 301 303 306 307 309 311 312 313 313 314 315 314 312 311 310 308 306 303 301 300 299 297
262 261 260 260 260 260 261 261 260 260 261 262 264 266 269 272 276 279 283 287 291 294 298 301 302 304 306 306 307 308 308 309 309 309 308 307 306 304 302 299 297 296 295
260 260 259 259 259 259 259 259 259 258 259 260 262 264 266 268 271 275 279 282 285 289 292 295 297 298 300 302 303 303 304 304 304 304 304 304 303 302 300 299 297 295 293
260 259 258 258 258 258 257 257 257 257 258 259 260 262 264 266 268 271 274 277 281 284 288 291 293 295 296 297 299 300 300 300 301 301 301 300 300 300 298 296 294 293 292
Height
5832 5832 5831 5830 5829 5827 5825 5823 5821 5818 5815 5811 5807 5804 5800 5796 5792 5788 5785 5781 5778 5775 5773 5772 5771 5770 5771 5771 5772 5774 5777 5780 5783 5787 5791 5795 5799 5803 5808 5812 5817 5821 5825
5831 5831 5830 5829 5828 5827 5824 5822 5820 5817 5813 5810 5806 5802 5798 5795 5791 5787 5783 5779 5776 5773 5771 5769 5768 5767 5767 5768 5769 5770 5772 5775 5778 5782 5786 5790 5795 5799 5803 5807 5812 5816 5820
5830 5830 5829 5828 5827 5826 5824 5821 5819 5816 5813 5809 5805 5801 5797 5794 5790 5786 5782 5778 5775 5771 5769 5767 5765 5764 5764 5764 5765 5766 5768 5770 5773 5777 5781 5785 5790 5793 5798 5802 5807 5811 5815
5829 5829 5828 5828 5826 5825 5823 5821 5818 5815 5812 5808 5805 5801 5797 5793 5789 5785 5781 5777 5773 5770 5767 5765 5763 5762 5761 5762 5762 5763 5765 5767 5769 5772 5776 5780 5784 5788 5793 5797 5801 5805 5809
5828 5828 5827 5826 5825 5824 5822 5820 5817 5814 5811 5808 5804 5800 5796 5792 5788 5784 5780 5776 5773 5770 5766 5763 5761 5760 5759 5760 5760 5761 5762 5764 5766 5769 5772 5776 5780 5783 5788 5792 5796 5800 5804
5827 5827 5826 5825 5824 5823 5821 5819 5816 5814 5811 5807 5804 5800 5796 5792 5788 5784 5780 5776 5773 5769 5766 5763 5761 5759 5758 5758 5758 5759 5760 5762 5763 5766 5769 5772 5776 5779 5783 5787 5791 5795 5799
5826 5825 5825 5824 5823 5822 5820 5818 5816 5813 5810 5807 5804 5800 5796 5792 5788 5784 5780 5776 5773 5769 5766 5763 5761 5759 5758 5758 5758 5758 5759 5760 5761 5763 5766 5769 5772 5775 5779 5783 5787 5790 5794
5824 5824 5824 5823 5822 5821 5819 5817 5815 5813 5810 5807 5804 5800 5797 5792 5788 5784 5780 5777 5773 5770 5767 5764 5762 5760 5758 5757 5757 5758 5758 5759 5760 5762 5764 5766 5769 5772 5775 5779 5783 5786 5789
5823 5823 5822 5822 5821 5820 5818 5816 5814 5812 5810 5807 5804 5800 5797 5793 5789 5785 5781 5777 5774 5771 5768 5765 5762 5760 5759 5758 5757 5757 5758 5758 5759 5760 5762 5764 5767 5769 5772 5775 5779 5782 5784
5821 5821 5821 5820 5820 5819 5817 5816 5814 5812 5809 5806 5804 5801 5797 5793 5790 5786 5782 5778 5775 5772 5769 5766 5763 5761 5759 5758 5757 5757 5757 5757 5758 5759 5760 5762 5764 5767 5769 5772 5775 5778 5780
5820 5819 5819 5819 5818 5817 5816 5815 5813 5811 5809 5806 5804 5801 5798 5794 5790 5787 5783 5779 5776 5773 5770 5767 5764 5762 5760 5759 5758 5757 5757 5757 5757 5758 5759 5760 5762 5764 5767 5769 5771 5773 5776
5817 5817 5817 5817 5817 5816 5815 5814 5812 5810 5808 5806 5803 5801 5798 5795 5791 5788 5784 5781 5777 5774 5771 5768 5766 5763 5761 5760 5758 5757 5757 5756 5757 5757 5758 5759 5760 5762 5764 5766 5768 5770 5771
5815 5815 5815 5815 5814 5814 5813 5812 5811 5809 5807 5805 5803 5800 5798 5795 5792 5789 5785 5782 5779 5776 5773 5770 5767 5765 5762 5761 5759 5758 5757 5757 5757 5757 5757 5758 5759 5760 5761 5763 5764 5766 5767
5812 5812 5812 5812 5812 5811 5811 5810 5809 5808 5806 5804 5802 5800 5798 5795 5792 5789 5786 5783 5780 5777 5774 5771 5768 5766 5764 5762 5760 5759 5758 5758 5757 5757 5757 5757 5757 5758 5759 5760 5762 5763 5764
5808 5809 5809 5809 5809 5809 5808 5808 5807 5806 5804 5803 5801 5799 5797 5794 5792 5789 5786 5784 5781 5778 5775 5772 5770 5768 5765 5763 5762 5760 5759 5758 5757 5757 5757 5757 5756 5757 5757 5758 5759 5759 5760
5805 5805 5805 5805 5805 5805 5805 5805 5804 5803 5802 5801 5800 5798 5796 5794 5791 5789 5786 5784 5781 5778 5776 5773 5771 5769 5766 5764 5762 5761 5760 5759 5758 5757 5757 5756 5756 5755 5755 5756 5756 5756 5757
5801 5801 5801 5801 5801 5801 5801 5801 5800 5800 5799 5799 5797 5796 5794 5792 5790 5788 5786 5783 5781 5778 5776 5774 5771 5769 5767 5765 5763 5761 5760 5759 5758 5757 5756 5755 5755 5754 5754 5754 5754 5754 5753
5796 5796 5796 5797 5797 5797 5797 5797 5797 5796 5796 5795 5794 5793 5792 5790 5788 5786 5784 5782 5780 5778 5776 5773 5771 5769 5767 5765 5763 5761 5760 5758 5757 5756 5755 5754 5753 5752 5752 5752 5751 5751 5751
5791 5791 5791 5791 5792 5792 5792 5792 5792 5792 5792 5791 5791 5790 5789 5788 5786 5784 5782 5780 5778 5777 5774 5772 5770 5768 5766 5764 5762 5761 5759 5758 5756 5755 5754 5753 5752 5751 5750 5750 5749 5749 5748
5785 5785 5785 5786 5786 5786 5787 5787 5787 5787 5787 5787 5786 5786 5785 5784 5783 5781 5780 5778 5776 5774 5772 5771 5769 5767 5765 5763 5761 5759 5758 5756 5755 5754 5752 5751 5750 5749 5748 5747 5747 5746 5745
5779 5779 5779 5779 5779 5780 5780 5781 5781 5782 5782 5781 5781 5781 5780 5780 5779 5777 5776 5775 5773 5771 5770 5768 5766 5764 5763 5761 5759 5757 5756 5754 5753 5751 5750 5749 5747 5746 5745 5744 5743 5742 5741
5772 5772 5772 5772 5772 5773 5773 5774 5774 5775 5775 5775 5775 5775 5775 5775 5774 5773 5772 5771 5769 5768 5766 5765 5763 5761 5760 5758 5756 5754 5753 5751 5750 5748 5747 5746 5744 5743 5741 5740 5739 5738 5737
5763 5763 5764 5764 5765 5765 5766 5766 5767 5767 5768 5768 5769 5769 5769 5769 5768 5768 5767 5766 5765 5763 5762 5761 5759 5757 5756 5754 5752 5751 5749 5747 5746 5744 5743 5741 5740 5738 5737 5736 5735 5733 5732
5753 5754 5755 5755 5756 5757 5757 5758 5758 5759 5760 5761 5761 5762 5762 5762 5762 5762 5761 5760 5759 5758 5757 5756 5754 5753 5751 5750 5748 5746 5745 5743 5742 5740 5738 5737 5735 5734 5732 5731 5729 5728 5727
5742 5743 5744 5745 5746 5747 5748 5749 5749 5750 5751 5752 5753 5754 5754 5755 5755 5755 5755 5754 5753 5752 5751 5750 5749 5747 5746 5745 5743 5741 5740 5738 5737 5735 5733 5732 5730 5728 5727 5725 5724 5722 5721
5730 5731 5732 5733 5735 5736 5737 5739 5739 5740 5741 5742 5744 5745 5746 5746 5747 5747 5747 5747 5746 5745 5745 5744 5743 5741 5740 5739 5737 5736 5734 5732 5731 5729 5727 5726 5724 5722 5720 5719 5717 5716 5715